QPF
0.00 0.00 0.00 0.00 0.00 0.00 0.00 0.00 0.00 0.00 0.00 0.00 0.00 0.00 0.00 0.00 0.00 0.00 0.00 0.00 0.00 0.00 0.00 0.00 0.00 0.00 0.00 0.00 0.00 0.00 0.00 0.00 0.00 0.00 0.00 0.00 0.02 0.02 0.09 0.06 0.07 0.02 0.01
0.00 0.00 0.00 0.00 0.00 0.00 0.00 0.00 0.00 0.00 0.00 0.00 0.00 0.00 0.00 0.00 0.00 0.00 0.00 0.00 0.00 0.00 0.00 0.00 0.00 0.00 0.00 0.00 0.00 0.00 0.00 0.00 0.00 0.00 0.00 0.00 0.00 0.00 0.00 0.01 0.02 0.07 0.07
0.00 0.00 0.00 0.00 0.00 0.00 0.00 0.00 0.00 0.00 0.00 0.00 0.00 0.00 0.00 0.00 0.00 0.00 0.00 0.00 0.00 0.00 0.00 0.00 0.00 0.00 0.00 0.00 0.00 0.00 0.00 0.00 0.00 0.00 0.00 0.00 0.00 0.00 0.00 0.00 0.02 0.06 0.19
0.00 0.00 0.00 0.00 0.00 0.00 0.00 0.00 0.00 0.00 0.00 0.00 0.00 0.00 0.00 0.00 0.00 0.00 0.00 0.02 0.00 0.00 0.00 0.00 0.00 0.00 0.00 0.00 0.00 0.00 0.00 0.00 0.00 0.00 0.00 0.00 0.00 0.00 0.00 0.00 0.02 0.01 0.17
0.00 0.00 0.00 0.00 0.00 0.00 0.00 0.00 0.00 0.00 0.00 0.00 0.00 0.00 0.00 0.00 0.00 0.00 0.00 0.02 0.01 0.01 0.00 0.00 0.00 0.00 0.00 0.00 0.00 0.00 0.00 0.00 0.00 0.00 0.00 0.00 0.00 0.00 0.00 0.02 0.01 0.00 0.02
0.00 0.00 0.00 0.00 0.00 0.00 0.00 0.00 0.02 0.04 0.01 0.00 0.00 0.00 0.00 0.01 0.03 0.01 0.00 0.00 0.01 0.01 0.00 0.00 0.01 0.00 0.00 0.00 0.00 0.00 0.00 0.00 0.00 0.00 0.00 0.00 0.00 0.00 0.00 0.03 0.04 0.01 0.00
0.00 0.00 0.00 0.00 0.00 0.00 0.00 0.00 0.01 0.04 0.06 0.03 0.01 0.00 0.00 0.01 0.02 0.02 0.01 0.00 0.00 0.00 0.02 0.01 0.00 0.00 0.00 0.00 0.00 0.00 0.00 0.00 0.00 0.00 0.00 0.00 0.00 0.09 0.19 0.08 0.07 0.04 0.00
0.00 0.00 0.00 0.00 0.00 0.00 0.00 0.00 0.01 0.01 0.03 0.07 0.05 0.08 0.04 0.00 0.00 0.01 0.02 0.02 0.02 0.01 0.02 0.02 0.00 0.00 0.00 0.00 0.00 0.00 0.00 0.00 0.00 0.00 0.00 0.00 0.00 0.08 0.19 0.14 0.10 0.08 0.00
0.00 0.00 0.00 0.00 0.00 0.00 0.00 0.00 0.00 0.01 0.02 0.02 0.04 0.09 0.12 0.09 0.04 0.00 0.00 0.03 0.03 0.02 0.01 0.01 0.00 0.00 0.00 0.00 0.00 0.00 0.00 0.00 0.00 0.00 0.00 0.00 0.00 0.02 0.07 0.12 0.08 0.14 0.02
0.00 0.00 0.00 0.00 0.00 0.00 0.00 0.00 0.00 0.00 0.01 0.02 0.02 0.06 0.10 0.13 0.14 0.08 0.01 0.00 0.02 0.03 0.01 0.02 0.01 0.00 0.00 0.00 0.00 0.00 0.00 0.00 0.00 0.00 0.00 0.00 0.00 0.00 0.02 0.08 0.10 0.13 0.04
0.00 0.00 0.00 0.00 0.00 0.00 0.00 0.00 0.00 0.00 0.00 0.01 0.02 0.04 0.04 0.09 0.16 0.14 0.09 0.04 0.02 0.04 0.03 0.04 0.03 0.00 0.00 0.00 0.00 0.00 0.00 0.00 0.00 0.00 0.00 0.00 0.00 0.00 0.07 0.06 0.04 0.10 0.10
0.00 0.00 0.00 0.00 0.00 0.00 0.00 0.00 0.00 0.00 0.00 0.00 0.01 0.05 0.07 0.05 0.15 0.12 0.10 0.13 0.09 0.07 0.04 0.05 0.03 0.01 0.00 0.00 0.00 0.00 0.00 0.00 0.00 0.00 0.00 0.00 0.00 0.01 0.10 0.09 0.01 0.08 0.09
0.00 0.00 0.00 0.00 0.00 0.00 0.00 0.00 0.00 0.00 0.00 0.00 0.00 0.00 0.01 0.00 0.02 0.07 0.05 0.08 0.06 0.10 0.05 0.06 0.04 0.00 0.00 0.00 0.00 0.00 0.00 0.00 0.00 0.00 0.00 0.00 0.00 0.00 0.02 0.06 0.04 0.02 0.02
0.00 0.00 0.00 0.00 0.00 0.00 0.00 0.00 0.00 0.00 0.00 0.00 0.00 0.00 0.00 0.00 0.03 0.03 0.03 0.03 0.04 0.01 0.01 0.02 0.01 0.00 0.00 0.00 0.00 0.00 0.00 0.00 0.00 0.00 0.00 0.00 0.00 0.01 0.05 0.06 0.04 0.02 0.01
0.00 0.00 0.00 0.00 0.00 0.00 0.00 0.00 0.00 0.00 0.00 0.00 0.00 0.00 0.00 0.00 0.00 0.01 0.01 0.05 0.07 0.04 0.01 0.01 0.01 0.01 0.00 0.00 0.00 0.00 0.00 0.00 0.00 0.00 0.00 0.00 0.00 0.00 0.03 0.05 0.04 0.06 0.11
0.00 0.00 0.00 0.00 0.00 0.00 0.00 0.00 0.00 0.00 0.00 0.00 0.00 0.00 0.00 0.00 0.00 0.01 0.01 0.04 0.07 0.06 0.03 0.02 0.01 0.01 0.01 0.00 0.00 0.00 0.00 0.00 0.00 0.00 0.00 0.00 0.00 0.00 0.00 0.02 0.06 0.11 0.11
0.00 0.00 0.00 0.00 0.00 0.00 0.00 0.00 0.00 0.00 0.00 0.00 0.00 0.00 0.00 0.00 0.00 0.00 0.00 0.01 0.05 0.05 0.06 0.04 0.03 0.01 0.01 0.01 0.00 0.00 0.00 0.00 0.00 0.00 0.00 0.00 0.00 0.00 0.00 0.00 0.00 0.05 0.08
0.00 0.00 0.00 0.00 0.00 0.00 0.00 0.00 0.00 0.00 0.00 0.00 0.00 0.00 0.00 0.00 0.00 0.00 0.00 0.00 0.01 0.03 0.04 0.05 0.06 0.03 0.00 0.01 0.01 0.00 0.00 0.00 0.00 0.00 0.00 0.00 0.00 0.00 0.00 0.00 0.00 0.00 0.02
0.00 0.00 0.00 0.00 0.00 0.00 0.00 0.00 0.00 0.00 0.00 0.00 0.00 0.00 0.00 0.00 0.00 0.00 0.00 0.00 0.00 0.02 0.05 0.10 0.12 0.08 0.02 0.01 0.01 0.00 0.00 0.00 0.00 0.00 0.00 0.00 0.00 0.00 0.00 0.00 0.00 0.00 0.00
0.00 0.00 0.00 0.00 0.00 0.00 0.00 0.00 0.00 0.00 0.00 0.00 0.00 0.00 0.00 0.00 0.00 0.00 0.00 0.00 0.00 0.01 0.04 0.11 0.10 0.10 0.04 0.01 0.02 0.02 0.00 0.01 0.00 0.00 0.00 0.00 0.00 0.00 0.00 0.00 0.00 0.00 0.00
0.00 0.00 0.00 0.00 0.00 0.00 0.00 0.00 0.00 0.00 0.00 0.00 0.00 0.00 0.00 0.00 0.00 0.00 0.00 0.00 0.00 0.01 0.03 0.06 0.08 0.09 0.06 0.04 0.05 0.04 0.02 0.01 0.02 0.01 0.01 0.01 0.00 0.00 0.00 0.00 0.00 0.00 0.00
0.00 0.00 0.00 0.00 0.00 0.00 0.00 0.00 0.00 0.00 0.00 0.00 0.00 0.00 0.00 0.00 0.00 0.00 0.00 0.00 0.00 0.00 0.00 0.02 0.07 0.10 0.08 0.06 0.04 0.02 0.02 0.01 0.00 0.01 0.00 0.01 0.01 0.00 0.00 0.00 0.00 0.00 0.00
0.00 0.00 0.00 0.00 0.00 0.00 0.00 0.00 0.00 0.00 0.00 0.00 0.00 0.00 0.00 0.00 0.00 0.00 0.00 0.00 0.00 0.00 0.00 0.01 0.03 0.08 0.06 0.04 0.05 0.03 0.01 0.02 0.00 0.00 0.00 0.00 0.00 0.00 0.00 0.00 0.00 0.00 0.00
0.00 0.00 0.00 0.00 0.00 0.00 0.00 0.00 0.00 0.00 0.00 0.00 0.00 0.00 0.00 0.00 0.00 0.00 0.00 0.00 0.00 0.00 0.01 0.03 0.04 0.03 0.06 0.05 0.06 0.06 0.03 0.00 0.00 0.00 0.00 0.00 0.00 0.00 0.00 0.00 0.00 0.00 0.00
0.00 0.00 0.00 0.00 0.00 0.00 0.00 0.00 0.00 0.00 0.00 0.00 0.00 0.00 0.00 0.00 0.00 0.00 0.00 0.00 0.00 0.00 0.00 0.00 0.02 0.03 0.04 0.08 0.07 0.09 0.09 0.03 0.00 0.00 0.00 0.00 0.00 0.00 0.00 0.00 0.00 0.00 0.00
0.00 0.00 0.00 0.00 0.00 0.00 0.00 0.00 0.00 0.00 0.00 0.00 0.00 0.00 0.00 0.00 0.00 0.00 0.00 0.00 0.00 0.00 0.00 0.00 0.00 0.02 0.05 0.10 0.12 0.14 0.09 0.05 0.01 0.00 0.00 0.00 0.00 0.00 0.00 0.00 0.00 0.00 0.00
MSLP
1013.53 1013.67 1013.89 1013.88 1013.88 1013.82 1013.68 1013.64 1013.48 1013.41 1013.27 1013.04 1012.92 1012.95 1012.99 1013.02 1013.07 1013.14 1013.27 1013.44 1013.82 1013.99 1014.11 1014.34 1014.54 1014.62 1014.63 1014.75 1014.81 1014.83 1014.94 1015.05 1015.20 1015.26 1015.37 1015.35 1015.43 1015.59 1015.74 1015.99 1016.18 1016.13 1016.45
1014.08 1013.98 1014.05 1014.07 1014.02 1013.95 1013.89 1013.80 1013.66 1013.63 1013.54 1013.33 1013.28 1013.34 1013.37 1013.31 1013.28 1013.34 1013.33 1013.41 1013.78 1013.92 1014.15 1014.44 1014.57 1014.55 1014.71 1014.85 1014.94 1015.05 1015.07 1015.19 1015.30 1015.43 1015.49 1015.53 1015.56 1015.70 1015.88 1016.05 1016.25 1016.30 1016.58
1014.29 1014.26 1014.23 1014.28 1014.26 1014.27 1014.19 1014.17 1014.03 1013.87 1013.70 1013.55 1013.45 1013.39 1013.55 1013.58 1013.47 1013.51 1013.53 1013.52 1013.71 1013.80 1014.14 1014.46 1014.60 1014.59 1014.68 1014.95 1014.96 1015.16 1015.23 1015.24 1015.31 1015.49 1015.59 1015.28 1015.51 1015.88 1016.03 1016.17 1016.39 1016.42 1016.56
1014.54 1014.63 1014.74 1014.82 1014.74 1014.66 1014.59 1014.37 1014.20 1014.11 1014.08 1013.77 1013.49 1013.44 1013.50 1013.63 1013.67 1013.64 1013.76 1013.86 1013.85 1013.83 1013.97 1014.32 1014.42 1014.52 1014.73 1014.92 1015.02 1015.17 1015.32 1015.34 1015.37 1015.50 1015.45 1015.47 1015.65 1016.08 1016.18 1016.37 1016.45 1016.98 1016.82
1015.54 1015.30 1015.59 1015.28 1015.16 1015.07 1014.90 1014.86 1014.66 1014.52 1014.12 1014.17 1013.89 1013.62 1013.55 1013.62 1013.67 1013.71 1013.76 1013.73 1013.95 1013.98 1014.02 1014.16 1014.29 1014.46 1014.74 1014.95 1015.01 1015.24 1015.32 1015.37 1015.45 1015.46 1015.36 1015.56 1015.82 1016.25 1016.44 1016.60 1016.65 1016.82 1017.24
1016.37 1016.31 1016.23 1016.04 1015.85 1015.63 1015.21 1015.05 1014.75 1014.59 1014.47 1014.23 1014.12 1013.96 1013.83 1013.76 1013.65 1013.75 1013.73 1013.85 1013.99 1013.99 1014.05 1014.16 1014.18 1014.33 1014.63 1014.89 1014.99 1015.24 1015.41 1015.48 1015.55 1015.27 1015.35 1015.65 1015.87 1016.33 1016.54 1016.67 1016.95 1016.93 1017.30
1017.45 1017.34 1017.02 1016.75 1016.61 1016.34 1015.99 1015.70 1015.26 1014.86 1014.58 1014.27 1014.22 1014.09 1013.96 1013.93 1013.82 1013.83 1013.95 1013.95 1013.87 1013.91 1013.98 1014.07 1014.11 1014.29 1014.50 1014.74 1014.97 1015.20 1015.43 1015.55 1015.26 1015.32 1015.34 1015.49 1015.73 1016.26 1016.52 1016.61 1016.84 1017.22 1017.33
1018.45 1018.31 1018.00 1017.53 1017.18 1017.01 1016.68 1016.35 1015.78 1015.19 1014.75 1014.48 1014.22 1013.93 1013.72 1013.78 1013.79 1013.77 1013.78 1013.83 1013.93 1013.88 1013.85 1014.03 1014.07 1014.28 1014.44 1014.61 1014.86 1015.18 1015.34 1015.51 1015.46 1015.41 1015.40 1015.47 1015.75 1016.15 1016.39 1016.79 1016.90 1017.09 1017.45
1019.19 1018.95 1018.75 1018.35 1018.03 1017.52 1017.12 1016.79 1016.32 1015.83 1015.15 1014.62 1014.36 1014.20 1013.97 1013.69 1013.53 1013.72 1013.73 1013.73 1013.70 1013.75 1013.86 1013.90 1014.08 1014.25 1014.43 1014.47 1014.59 1015.02 1015.26 1015.42 1015.25 1015.41 1015.55 1015.51 1015.86 1016.07 1016.19 1016.67 1016.94 1016.96 1017.26
1019.49 1019.54 1019.51 1019.15 1018.76 1018.33 1017.66 1017.14 1016.79 1016.38 1015.79 1015.13 1014.45 1014.18 1013.92 1013.89 1013.58 1013.57 1013.52 1013.53 1013.59 1013.62 1013.78 1013.91 1013.94 1014.14 1014.37 1014.53 1014.56 1014.72 1015.09 1015.34 1015.09 1015.33 1015.38 1015.54 1015.93 1016.01 1016.14 1016.38 1016.83 1017.08 1017.39
1019.89 1020.03 1019.95 1019.70 1019.35 1018.96 1018.08 1017.61 1017.10 1016.59 1016.22 1015.76 1015.06 1014.49 1013.96 1013.61 1013.37 1013.13 1013.15 1013.09 1013.40 1013.50 1013.45 1013.74 1013.93 1014.04 1014.20 1014.51 1014.57 1014.70 1014.94 1014.61 1014.79 1015.07 1015.15 1015.53 1015.86 1015.86 1015.90 1016.13 1016.55 1016.99 1017.39
1020.83 1020.71 1020.64 1020.43 1020.02 1019.56 1018.71 1018.31 1017.77 1017.21 1016.76 1016.31 1015.80 1015.48 1014.77 1013.73 1013.20 1013.11 1013.17 1013.22 1012.93 1013.07 1013.29 1013.32 1013.58 1013.86 1014.30 1013.94 1014.15 1014.65 1014.44 1014.29 1014.48 1014.67 1014.84 1015.29 1015.60 1015.66 1015.61 1015.91 1016.16 1016.72 1017.17
1021.93 1021.61 1021.37 1021.07 1020.66 1020.11 1019.40 1018.86 1018.28 1017.81 1017.27 1016.67 1016.25 1015.93 1015.32 1014.51 1013.35 1012.92 1012.91 1012.95 1012.87 1012.74 1012.82 1013.07 1013.32 1013.35 1013.44 1013.64 1013.63 1013.74 1013.89 1014.13 1014.17 1014.33 1014.47 1014.92 1015.23 1015.44 1015.47 1015.59 1015.98 1016.36 1016.83
1022.24 1022.23 1021.97 1021.63 1021.08 1020.63 1020.15 1019.39 1018.84 1018.17 1017.58 1016.84 1016.59 1016.23 1015.67 1014.88 1014.26 1012.97 1012.48 1012.32 1012.49 1012.48 1012.52 1012.44 1012.45 1012.72 1012.98 1013.24 1013.39 1013.52 1013.61 1013.68 1013.68 1013.98 1014.16 1014.69 1014.85 1015.01 1015.15 1015.36 1015.67 1015.99 1016.42
1022.64 1022.41 1022.14 1021.79 1021.36 1020.93 1020.35 1019.79 1019.18 1018.53 1017.92 1017.48 1016.74 1016.40 1015.99 1015.25 1014.54 1013.68 1012.49 1011.81 1011.74 1012.05 1012.01 1012.04 1012.12 1012.27 1012.40 1012.87 1012.97 1013.17 1013.13 1013.30 1013.45 1013.58 1013.78 1014.27 1014.56 1014.61 1014.68 1014.87 1015.32 1015.68 1016.01
1023.16 1022.80 1022.56 1022.10 1021.60 1021.18 1020.51 1020.03 1019.34 1018.70 1018.10 1017.55 1016.88 1016.33 1016.09 1015.50 1014.73 1013.85 1012.95 1011.98 1011.23 1011.24 1011.41 1011.33 1011.44 1011.61 1011.88 1012.30 1012.59 1012.73 1012.72 1012.72 1012.99 1013.33 1013.40 1013.53 1014.04 1014.26 1014.35 1014.56 1014.90 1015.21 1015.68
1023.58 1023.24 1022.80 1022.25 1021.86 1021.44 1020.77 1020.10 1019.35 1018.63 1018.26 1017.57 1016.95 1016.39 1015.91 1015.44 1014.79 1014.09 1013.10 1012.15 1011.26 1010.63 1010.50 1010.71 1010.93 1011.08 1011.20 1011.72 1011.98 1012.22 1012.35 1012.36 1012.42 1012.77 1012.99 1013.12 1013.30 1013.90 1014.16 1014.39 1014.63 1014.92 1015.33
1023.82 1023.45 1023.08 1022.66 1022.00 1021.33 1020.61 1019.89 1019.24 1018.72 1018.25 1017.51 1016.92 1016.31 1015.81 1015.39 1014.90 1014.05 1013.00 1012.07 1011.14 1010.31 1010.00 1010.17 1010.23 1010.58 1010.79 1010.92 1011.42 1011.41 1011.68 1011.87 1011.88 1012.05 1012.43 1012.65 1012.82 1013.00 1013.78 1014.06 1014.38 1014.67 1015.04
1023.74 1023.25 1022.64 1022.16 1021.53 1020.83 1020.20 1019.58 1018.83 1018.27 1017.78 1017.22 1016.54 1015.98 1015.54 1015.09 1014.63 1014.03 1012.94 1011.75 1011.29 1010.71 1009.71 1009.43 1009.56 1009.63 1010.12 1010.33 1010.65 1010.99 1010.99 1011.01 1011.35 1011.37 1011.78 1012.18 1012.42 1012.60 1012.73 1013.54 1013.96 1014.37 1014.71
1023.70 1023.31 1022.80 1022.14 1021.50 1020.89 1020.01 1019.22 1018.45 1017.95 1017.51 1016.91 1016.11 1015.54 1015.06 1014.65 1014.27 1013.66 1012.64 1011.79 1011.24 1010.52 1009.85 1008.64 1008.77 1009.20 1008.91 1009.56 1010.04 1010.08 1010.60 1010.55 1010.76 1010.76 1011.09 1011.46 1011.82 1012.28 1012.50 1012.72 1013.45 1013.89 1014.41
1023.87 1023.31 1022.63 1021.97 1021.40 1020.71 1019.95 1019.36 1018.53 1018.03 1017.38 1016.42 1015.63 1015.03 1014.46 1014.11 1013.80 1013.12 1012.19 1011.31 1010.68 1009.88 1009.24 1008.59 1007.71 1008.09 1008.10 1008.37 1009.41 1009.71 1010.11 1010.18 1010.29 1010.20 1010.65 1010.92 1011.22 1011.76 1012.06 1012.31 1012.60 1012.93 1013.74
1023.78 1023.15 1022.49 1021.93 1021.45 1021.03 1020.73 1020.26 1019.44 1018.56 1017.53 1016.45 1015.56 1014.72 1014.06 1013.40 1012.97 1012.41 1011.61 1010.80 1010.04 1008.96 1008.67 1007.99 1007.13 1007.15 1007.57 1007.75 1008.21 1008.69 1009.24 1009.81 1009.92 1009.82 1009.84 1010.36 1010.76 1011.09 1011.76 1011.66 1012.07 1012.37 1012.70
1023.87 1023.21 1022.62 1022.11 1021.63 1021.32 1020.81 1020.00 1019.15 1018.37 1017.29 1016.23 1015.26 1014.35 1013.68 1013.05 1012.30 1011.50 1011.01 1010.30 1009.39 1008.86 1008.10 1007.41 1006.63 1006.86 1007.54 1007.20 1006.92 1006.89 1007.40 1007.25 1007.94 1008.78 1009.09 1009.57 1010.16 1010.57 1010.94 1011.17 1011.41 1011.70 1012.18
1024.07 1023.52 1022.94 1022.16 1021.55 1021.02 1020.66 1019.85 1019.19 1018.21 1016.98 1015.94 1014.83 1013.92 1013.12 1012.22 1011.41 1010.64 1009.84 1009.39 1009.03 1008.68 1007.59 1006.68 1006.10 1005.80 1006.10 1005.97 1006.90 1006.83 1006.18 1005.99 1006.40 1007.39 1008.23 1008.67 1009.16 1009.71 1010.08 1010.53 1010.94 1011.09 1011.47
1024.25 1023.66 1022.91 1021.92 1021.60 1021.27 1020.68 1020.23 1019.33 1018.08 1016.95 1015.68 1014.56 1013.55 1012.47 1011.38 1010.55 1009.61 1009.00 1008.25 1008.08 1007.74 1006.95 1006.24 1005.39 1004.71 1005.12 1004.94 1005.59 1005.68 1006.37 1006.43 1005.80 1005.75 1006.67 1007.81 1008.53 1008.54 1008.97 1009.60 1009.91 1010.25 1010.75
1024.55 1023.98 1022.63 1022.00 1021.80 1021.19 1020.94 1020.11 1018.98 1017.82 1016.83 1015.62 1014.53 1013.43 1012.17 1011.20 1010.07 1009.11 1008.24 1007.38 1006.91 1006.72 1005.78 1004.98 1004.46 1003.77 1003.75 1004.31 1004.23 1004.78 1005.54 1005.63 1004.83 1005.05 1005.55 1006.19 1006.53 1007.47 1008.06 1008.70 1009.17 1009.32 1009.79
Thickness
5742 5741 5740 5739 5738 5738 5739 5738 5739 5738 5739 5741 5741 5740 5740 5740 5739 5738 5736 5734 5730 5726 5723 5720 5717 5716 5715 5713 5712 5710 5708 5707 5706 5704 5702 5700 5699 5696 5695 5692 5689 5688 5685
5733 5735 5735 5734 5733 5733 5734 5734 5734 5733 5733 5736 5735 5735 5734 5735 5736 5734 5734 5732 5727 5725 5721 5717 5715 5715 5713 5711 5709 5707 5706 5705 5703 5700 5698 5697 5696 5693 5690 5688 5685 5684 5681
5729 5728 5728 5728 5728 5727 5728 5727 5727 5728 5729 5730 5730 5731 5729 5728 5730 5730 5730 5729 5725 5723 5719 5715 5712 5712 5710 5708 5707 5704 5703 5702 5701 5698 5695 5696 5692 5689 5686 5684 5682 5681 5680
5724 5723 5722 5722 5722 5722 5721 5722 5723 5723 5722 5724 5727 5727 5726 5724 5724 5725 5724 5721 5721 5721 5718 5714 5712 5711 5708 5706 5704 5703 5700 5699 5698 5696 5694 5693 5690 5686 5682 5679 5678 5674 5677
5713 5714 5713 5714 5714 5713 5713 5712 5714 5714 5718 5716 5719 5721 5722 5721 5720 5720 5720 5719 5717 5716 5715 5712 5711 5709 5707 5704 5702 5700 5699 5698 5696 5694 5693 5690 5686 5681 5679 5675 5675 5673 5672
5704 5703 5703 5703 5704 5704 5706 5706 5707 5708 5708 5710 5712 5713 5715 5715 5716 5716 5716 5714 5712 5712 5711 5709 5709 5708 5706 5702 5700 5698 5697 5696 5693 5692 5692 5688 5684 5679 5676 5674 5670 5672 5670
5690 5690 5692 5693 5693 5693 5694 5695 5697 5699 5700 5704 5705 5706 5707 5708 5709 5709 5708 5709 5709 5708 5708 5707 5706 5705 5704 5701 5698 5696 5695 5693 5693 5691 5689 5688 5684 5678 5674 5674 5671 5668 5668
5677 5677 5678 5682 5683 5682 5683 5684 5688 5691 5694 5695 5698 5700 5702 5703 5703 5704 5705 5704 5703 5704 5705 5703 5703 5701 5701 5699 5695 5693 5693 5691 5690 5689 5687 5685 5683 5678 5674 5671 5669 5667 5664
5664 5665 5665 5668 5669 5672 5674 5676 5678 5680 5684 5689 5690 5691 5693 5696 5698 5699 5699 5700 5701 5700 5700 5699 5698 5697 5697 5696 5695 5691 5690 5688 5689 5687 5685 5684 5680 5677 5675 5671 5667 5667 5664
5654 5653 5652 5654 5657 5660 5664 5667 5669 5670 5674 5678 5683 5685 5687 5688 5690 5691 5693 5695 5695 5695 5694 5695 5695 5693 5692 5691 5691 5690 5688 5686 5687 5685 5683 5681 5679 5676 5674 5671 5666 5664 5661
5645 5642 5642 5643 5645 5648 5653 5657 5660 5662 5662 5666 5671 5675 5679 5682 5683 5686 5688 5689 5689 5689 5690 5688 5688 5689 5689 5686 5686 5685 5684 5686 5686 5684 5683 5680 5677 5675 5674 5671 5667 5663 5659
5630 5630 5629 5631 5633 5637 5642 5645 5648 5651 5653 5655 5659 5660 5665 5673 5677 5679 5681 5681 5684 5685 5684 5685 5684 5683 5681 5684 5683 5681 5681 5683 5684 5683 5682 5680 5676 5674 5674 5671 5668 5664 5659
5615 5616 5617 5618 5621 5625 5630 5634 5638 5641 5644 5647 5649 5651 5655 5660 5668 5671 5675 5676 5677 5679 5680 5680 5679 5681 5680 5680 5682 5682 5681 5679 5680 5681 5682 5680 5676 5673 5672 5671 5668 5664 5658
5607 5605 5606 5608 5611 5613 5616 5620 5623 5628 5632 5637 5639 5640 5644 5649 5654 5663 5667 5672 5673 5673 5675 5677 5678 5678 5677 5677 5679 5678 5678 5678 5679 5678 5679 5677 5676 5674 5672 5670 5667 5664 5660
5596 5597 5597 5599 5601 5603 5605 5607 5611 5615 5619 5622 5627 5629 5632 5637 5642 5649 5658 5665 5669 5669 5670 5672 5674 5674 5676 5674 5676 5675 5676 5675 5675 5676 5676 5675 5674 5674 5673 5671 5667 5665 5661
5582 5584 5584 5585 5588 5590 5594 5596 5599 5602 5606 5610 5614 5617 5620 5624 5629 5636 5644 5654 5662 5665 5667 5669 5671 5671 5672 5671 5672 5672 5673 5674 5673 5672 5673 5674 5673 5672 5672 5671 5667 5665 5661
5569 5569 5570 5573 5574 5576 5579 5582 5586 5590 5593 5596 5600 5604 5606 5611 5617 5622 5632 5642 5652 5659 5664 5664 5665 5666 5669 5667 5669 5670 5669 5670 5671 5670 5670 5671 5672 5670 5669 5668 5666 5664 5661
5556 5555 5556 5558 5562 5564 5568 5571 5574 5576 5577 5582 5586 5590 5592 5595 5600 5609 5619 5628 5639 5650 5656 5657 5659 5658 5661 5664 5664 5669 5668 5668 5668 5669 5668 5669 5669 5669 5666 5665 5663 5661 5659
5543 5544 5546 5548 5552 5555 5557 5559 5562 5563 5564 5566 5569 5573 5578 5581 5584 5590 5604 5617 5622 5632 5645 5651 5651 5654 5653 5658 5659 5661 5666 5668 5666 5667 5668 5666 5666 5666 5667 5663 5661 5658 5656
5531 5530 5532 5535 5537 5539 5543 5546 5548 5549 5549 5551 5556 5558 5560 5564 5568 5572 5585 5600 5606 5615 5626 5642 5641 5646 5651 5653 5652 5655 5656 5661 5661 5665 5665 5664 5664 5663 5663 5663 5658 5656 5654
5516 5518 5521 5523 5523 5525 5527 5527 5530 5530 5532 5536 5540 5544 5546 5549 5551 5558 5568 5580 5590 5601 5610 5623 5637 5641 5638 5646 5642 5641 5644 5651 5653 5660 5659 5661 5663 5661 5660 5660 5659 5658 5654
5505 5507 5509 5509 5508 5507 5506 5505 5508 5511 5515 5520 5525 5529 5532 5537 5541 5547 5554 5564 5575 5586 5595 5606 5625 5632 5634 5635 5635 5640 5631 5638 5644 5654 5659 5657 5658 5658 5657 5658 5656 5656 5655
5493 5494 5495 5496 5494 5491 5491 5492 5495 5498 5503 5508 5512 5518 5521 5524 5530 5534 5541 5549 5561 5566 5579 5589 5610 5609 5615 5614 5630 5639 5633 5638 5655 5650 5654 5656 5654 5654 5655 5655 5655 5655 5653
5480 5481 5481 5484 5484 5482 5478 5481 5482 5486 5492 5496 5503 5507 5509 5513 5521 5524 5532 5540 5545 5549 5565 5576 5590 5604 5608 5612 5604 5624 5640 5650 5647 5646 5649 5653 5653 5651 5653 5653 5652 5652 5651
5470 5471 5473 5477 5472 5467 5466 5466 5468 5474 5479 5486 5492 5497 5503 5507 5513 5519 5524 5530 5536 5540 5553 5563 5574 5595 5598 5612 5611 5615 5621 5633 5648 5653 5647 5645 5645 5652 5653 5653 5653 5652 5650
5458 5459 5467 5467 5461 5457 5453 5455 5459 5464 5468 5473 5478 5482 5489 5494 5501 5507 5514 5522 5527 5533 5547 5558 5567 5584 5595 5598 5613 5619 5613 5621 5641 5647 5649 5651 5654 5648 5649 5649 5649 5652 5650